SDM429 ULMM-UUYH

Flight info

Callsign SDM429
Flight time 1h 29m
Altitude 37000
Route LOPRA T822 SOTIS P35 UTUKA
Aircraft B77W/H-SDE1E2E3FGHIJ2J3J4J5M1RWXY/LB1D1

Departure

Time 2026-04-27 15:58
Airport Emperor Nicholas II Murmansk Airport (ULMM)

Arrival

Time 2026-04-27 17:28
Airport Ukhta Airport (UUYH)
Time Latitude Longitude Altitude Speed Heading
2026-04-27 15:44 68.78422 32.75348 280 ft 0 kts 327°
2026-04-27 15:51 68.78420 32.75351 280 ft 2 kts 327°
2026-04-27 15:51 68.78406 32.75384 287 ft 3 kts 292°
2026-04-27 15:51 68.78404 32.75430 287 ft 3 kts 249°
2026-04-27 15:51 68.78413 32.75479 285 ft 3 kts 235°
2026-04-27 15:52 68.78425 32.75524 287 ft 3 kts 235°
2026-04-27 15:52 68.78427 32.75536 287 ft 0 kts 237°
2026-04-27 15:53 68.78419 32.75506 280 ft 7 kts 228°
2026-04-27 15:54 68.78351 32.75307 281 ft 21 kts 232°
2026-04-27 15:54 68.78286 32.75079 279 ft 12 kts 212°
2026-04-27 15:54 68.78207 32.75143 279 ft 13 kts 146°
2026-04-27 15:54 68.78093 32.75351 277 ft 26 kts 146°
2026-04-27 15:55 68.77915 32.75680 279 ft 32 kts 146°
2026-04-27 15:55 68.77791 32.75908 278 ft 34 kts 146°
2026-04-27 15:55 68.77529 32.76390 280 ft 33 kts 146°
2026-04-27 15:55 68.77435 32.76603 278 ft 16 kts 109°
2026-04-27 15:56 68.77437 32.76900 280 ft 14 kts 85°
2026-04-27 15:56 68.77404 32.77177 280 ft 17 kts 140°
2026-04-27 15:56 68.77325 32.77200 280 ft 9 kts 217°
2026-04-27 15:56 68.77266 32.77006 280 ft 12 kts 239°
2026-04-27 15:57 68.77281 32.76858 279 ft 9 kts 314°
2026-04-27 15:57 68.77310 32.76794 278 ft 0 kts 325°
2026-04-27 15:57 68.77462 32.76513 279 ft 66 kts 326°
2026-04-27 15:58 68.78071 32.75395 277 ft 141 kts 326°
2026-04-27 15:58 68.79018 32.73691 623 ft 167 kts 327°
2026-04-27 15:58 68.79963 32.71933 1625 ft 160 kts 328°
2026-04-27 15:58 68.80862 32.70218 2628 ft 159 kts 329°
2026-04-27 15:59 68.81856 32.68345 3001 ft 188 kts 329°
2026-04-27 15:59 68.83031 32.66132 3375 ft 216 kts 329°
2026-04-27 15:59 68.84297 32.63738 4204 ft 225 kts 330°
2026-04-27 15:59 68.85604 32.61270 5096 ft 229 kts 328°
2026-04-27 16:00 68.86699 32.57966 5860 ft 245 kts 303°
2026-04-27 16:00 68.87092 32.54969 6411 ft 257 kts 288°
2026-04-27 16:00 68.86980 32.48135 7556 ft 278 kts 257°
2026-04-27 16:00 68.86001 32.43432 8446 ft 290 kts 229°
2026-04-27 16:01 68.84315 32.40340 9372 ft 296 kts 200°
2026-04-27 16:01 68.82270 32.39643 10224 ft 300 kts 172°
2026-04-27 16:01 68.80260 32.41486 10707 ft 316 kts 146°
2026-04-27 16:01 68.78596 32.45686 10921 ft 337 kts 124°
2026-04-27 16:02 68.77288 32.51317 11183 ft 361 kts 116°
2026-04-27 16:02 68.76100 32.57440 11909 ft 371 kts 115°
2026-04-27 16:02 68.74876 32.63873 13011 ft 376 kts 115°
2026-04-27 16:02 68.73650 32.70154 14133 ft 379 kts 115°
2026-04-27 16:03 68.72366 32.76544 15134 ft 384 kts 116°
2026-04-27 16:03 68.71042 32.82983 16078 ft 390 kts 116°
2026-04-27 16:03 68.69682 32.89507 17008 ft 396 kts 117°
2026-04-27 16:03 68.68296 32.96109 17970 ft 401 kts 117°
2026-04-27 16:04 68.66889 33.02784 18843 ft 406 kts 117°
2026-04-27 16:04 68.65463 33.09519 19717 ft 410 kts 117°
2026-04-27 16:04 68.63963 33.16198 20581 ft 414 kts 121°
2026-04-27 16:04 68.62144 33.22532 21440 ft 420 kts 128°
2026-04-27 16:05 68.60066 33.28236 22274 ft 426 kts 135°
2026-04-27 16:05 68.57850 33.33695 23065 ft 431 kts 135°
2026-04-27 16:05 68.55632 33.39258 23781 ft 434 kts 134°
2026-04-27 16:05 68.53435 33.44831 24364 ft 440 kts 135°
2026-04-27 16:06 68.51212 33.50631 24877 ft 445 kts 132°
2026-04-27 16:06 68.49016 33.56671 25413 ft 451 kts 131°
2026-04-27 16:06 68.46788 33.62903 25963 ft 456 kts 133°
2026-04-27 16:06 68.44595 33.69021 26464 ft 461 kts 133°
2026-04-27 16:07 68.42334 33.75283 26958 ft 466 kts 133°
2026-04-27 16:07 68.40038 33.81585 27425 ft 472 kts 134°
2026-04-27 16:07 68.37712 33.87921 27951 ft 476 kts 134°
2026-04-27 16:07 68.35368 33.94275 28456 ft 480 kts 135°
2026-04-27 16:08 68.32989 34.00699 28891 ft 485 kts 135°
2026-04-27 16:08 68.30588 34.07167 29264 ft 490 kts 135°
2026-04-27 16:08 68.28162 34.13687 29673 ft 493 kts 135°
2026-04-27 16:08 68.25721 34.20232 30115 ft 495 kts 135°
2026-04-27 16:09 68.23278 34.26760 30667 ft 492 kts 136°
2026-04-27 16:09 68.18401 34.39718 31507 ft 494 kts 136°
2026-04-27 16:09 68.15956 34.46183 32009 ft 493 kts 136°
2026-04-27 16:10 68.11080 34.59023 32933 ft 492 kts 137°
2026-04-27 16:10 68.06175 34.71865 33651 ft 494 kts 137°
2026-04-27 16:11 68.03719 34.78266 34098 ft 493 kts 136°
2026-04-27 16:11 67.98808 34.91008 34748 ft 493 kts 136°
2026-04-27 16:12 67.93870 35.03737 35390 ft 493 kts 137°
2026-04-27 16:12 67.91405 35.10062 35739 ft 492 kts 136°
2026-04-27 16:12 67.86504 35.22582 36322 ft 493 kts 138°
2026-04-27 16:13 67.84028 35.28876 36566 ft 494 kts 137°
2026-04-27 16:13 67.79050 35.41472 36890 ft 498 kts 137°
2026-04-27 16:13 67.76543 35.47786 36938 ft 498 kts 137°
2026-04-27 16:14 67.66359 35.73236 36927 ft 509 kts 137°
2026-04-27 16:15 67.55963 35.98889 36911 ft 517 kts 138°
2026-04-27 16:16 67.46289 36.22476 36903 ft 521 kts 139°
2026-04-27 16:17 67.35651 36.48095 36878 ft 520 kts 139°
2026-04-27 16:18 67.25026 36.73359 36867 ft 517 kts 140°
2026-04-27 16:19 67.19724 36.85850 36868 ft 515 kts 139°
2026-04-27 16:20 67.09130 37.10573 36860 ft 513 kts 139°
2026-04-27 16:21 67.01181 37.28925 36854 ft 512 kts 140°
2026-04-27 16:22 66.90560 37.53189 36852 ft 512 kts 140°
2026-04-27 16:22 66.82568 37.71254 36838 ft 513 kts 140°
2026-04-27 16:23 66.74570 37.89182 36850 ft 512 kts 140°
2026-04-27 16:24 66.69223 38.01070 36847 ft 512 kts 140°
2026-04-27 16:25 66.58481 38.24762 36841 ft 513 kts 140°
2026-04-27 16:26 66.47703 38.48254 36828 ft 513 kts 141°
2026-04-27 16:27 66.36903 38.71520 36811 ft 512 kts 141°
2026-04-27 16:28 66.23381 39.00263 36818 ft 511 kts 141°
2026-04-27 16:29 66.09830 39.28624 36796 ft 510 kts 142°
2026-04-27 16:30 65.98913 39.50828 36803 ft 508 kts 142°
2026-04-27 16:31 65.85318 39.78488 36777 ft 508 kts 142°
2026-04-27 16:32 65.77214 39.95080 36786 ft 507 kts 142°
2026-04-27 16:33 65.69554 40.12666 36781 ft 509 kts 127°
2026-04-27 16:33 65.66351 40.27891 36778 ft 514 kts 109°
2026-04-27 16:34 65.64424 40.44600 36771 ft 515 kts 107°
2026-04-27 16:34 65.62517 40.61335 36786 ft 516 kts 108°
2026-04-27 16:35 65.60523 40.78025 36770 ft 517 kts 108°
2026-04-27 16:36 65.57442 41.03008 36773 ft 517 kts 109°
2026-04-27 16:36 65.55366 41.19639 36762 ft 517 kts 109°
2026-04-27 16:37 65.53273 41.36259 36753 ft 517 kts 109°
2026-04-27 16:37 65.51164 41.52843 36755 ft 517 kts 109°
2026-04-27 16:38 65.49038 41.69388 36756 ft 517 kts 109°
2026-04-27 16:38 65.46897 41.85892 36748 ft 517 kts 109°
2026-04-27 16:39 65.44739 42.02377 36751 ft 516 kts 109°
2026-04-27 16:39 65.42523 42.18786 36731 ft 516 kts 110°
2026-04-27 16:40 65.40272 42.35136 36744 ft 515 kts 110°
2026-04-27 16:40 65.38016 42.51437 36732 ft 515 kts 110°
2026-04-27 16:41 65.35751 42.67710 36735 ft 515 kts 110°
2026-04-27 16:41 65.33472 42.83959 36724 ft 514 kts 110°
2026-04-27 16:42 65.31187 43.00184 36707 ft 514 kts 111°
2026-04-27 16:42 65.28892 43.16352 36708 ft 513 kts 111°
2026-04-27 16:43 65.26580 43.32480 36713 ft 513 kts 111°
2026-04-27 16:43 65.24269 43.48446 36700 ft 512 kts 111°
2026-04-27 16:44 65.21924 43.64496 36694 ft 512 kts 111°
2026-04-27 16:44 65.19568 43.80486 36694 ft 512 kts 111°
2026-04-27 16:45 65.17195 43.96444 36687 ft 511 kts 111°
2026-04-27 16:45 65.14811 44.12357 36689 ft 511 kts 112°
2026-04-27 16:46 65.12390 44.28235 36689 ft 511 kts 112°
2026-04-27 16:46 65.09930 44.44044 36682 ft 511 kts 112°
2026-04-27 16:47 65.07453 44.59840 36672 ft 511 kts 112°
2026-04-27 16:47 65.04963 44.75618 36677 ft 511 kts 112°
2026-04-27 16:48 65.02457 44.91372 36662 ft 511 kts 112°
2026-04-27 16:48 64.99942 45.07061 36662 ft 510 kts 113°
2026-04-27 16:49 64.96152 45.30439 36663 ft 511 kts 113°
2026-04-27 16:49 64.93588 45.46089 36610 ft 511 kts 113°
2026-04-27 16:50 64.91019 45.61667 36646 ft 509 kts 113°
2026-04-27 16:50 64.88552 45.77270 36653 ft 509 kts 109°
2026-04-27 16:51 64.86572 45.93225 36638 ft 508 kts 108°
2026-04-27 16:51 64.84599 46.09167 36641 ft 508 kts 109°
2026-04-27 16:52 64.82579 46.25053 36644 ft 508 kts 109°
2026-04-27 16:52 64.80532 46.40918 36634 ft 507 kts 109°
2026-04-27 16:53 64.78472 46.56754 36623 ft 508 kts 109°
2026-04-27 16:53 64.76379 46.72564 36627 ft 508 kts 109°
2026-04-27 16:54 64.74267 46.88360 36621 ft 508 kts 110°
2026-04-27 16:54 64.72144 47.04133 36617 ft 508 kts 110°
2026-04-27 16:55 64.69954 47.19833 36597 ft 508 kts 111°
2026-04-27 16:55 64.67676 47.35425 36604 ft 507 kts 111°
2026-04-27 16:56 64.65387 47.50980 36600 ft 506 kts 111°
2026-04-27 16:56 64.63094 47.66518 36605 ft 507 kts 111°
2026-04-27 16:57 64.60803 47.81952 36610 ft 507 kts 111°
2026-04-27 16:57 64.58478 47.97473 36601 ft 508 kts 111°
2026-04-27 16:58 64.56136 48.12974 36597 ft 508 kts 112°
2026-04-27 16:58 64.53777 48.28443 36603 ft 507 kts 112°
2026-04-27 16:59 64.51403 48.43885 36596 ft 507 kts 112°
2026-04-27 16:59 64.49017 48.59277 36593 ft 507 kts 112°
2026-04-27 17:00 64.45412 48.82298 36594 ft 506 kts 113°
2026-04-27 17:01 64.42931 48.97534 36594 ft 505 kts 114°
2026-04-27 17:01 64.40420 49.12705 36600 ft 505 kts 114°
2026-04-27 17:02 64.37916 49.27842 36584 ft 500 kts 114°
2026-04-27 17:02 64.35521 49.42637 36330 ft 481 kts 113°
2026-04-27 17:02 64.34351 49.49898 35901 ft 483 kts 114°
2026-04-27 17:03 64.33176 49.57150 35608 ft 482 kts 114°
2026-04-27 17:03 64.32000 49.64375 35323 ft 480 kts 114°
2026-04-27 17:03 64.31219 49.69144 35087 ft 480 kts 114°
2026-04-27 17:03 64.30038 49.76331 34742 ft 480 kts 114°
2026-04-27 17:04 64.28852 49.83517 34385 ft 480 kts 114°
2026-04-27 17:04 64.27660 49.90703 33656 ft 482 kts 114°
2026-04-27 17:04 64.26458 49.97918 32762 ft 483 kts 114°
2026-04-27 17:04 64.25264 50.05067 32224 ft 476 kts 115°
2026-04-27 17:05 64.24083 50.12125 31638 ft 470 kts 115°
2026-04-27 17:05 64.22912 50.19093 31116 ft 465 kts 115°
2026-04-27 17:05 64.21747 50.25993 30579 ft 461 kts 115°
2026-04-27 17:05 64.20589 50.32823 30056 ft 457 kts 115°
2026-04-27 17:06 64.19440 50.39581 29499 ft 453 kts 116°
2026-04-27 17:06 64.18296 50.46281 28909 ft 449 kts 116°
2026-04-27 17:06 64.17161 50.52904 28349 ft 444 kts 116°
2026-04-27 17:06 64.16037 50.59441 27839 ft 438 kts 116°
2026-04-27 17:07 64.14922 50.65905 27320 ft 434 kts 116°
2026-04-27 17:07 64.13814 50.72304 26794 ft 430 kts 116°
2026-04-27 17:07 64.12713 50.78640 26268 ft 427 kts 116°
2026-04-27 17:07 64.11618 50.84925 25765 ft 423 kts 116°
2026-04-27 17:08 64.10529 50.91157 25253 ft 420 kts 116°
2026-04-27 17:08 64.09445 50.97336 24769 ft 418 kts 116°
2026-04-27 17:08 64.08364 51.03480 24259 ft 415 kts 116°
2026-04-27 17:08 64.07286 51.09583 23769 ft 413 kts 116°
2026-04-27 17:09 64.06213 51.15646 23269 ft 410 kts 117°
2026-04-27 17:09 64.05143 51.21667 22702 ft 408 kts 117°
2026-04-27 17:09 64.04079 51.27644 22166 ft 405 kts 117°
2026-04-27 17:09 64.03022 51.33562 21667 ft 401 kts 117°
2026-04-27 17:10 64.01972 51.39425 21176 ft 397 kts 117°
2026-04-27 17:10 64.00931 51.45218 20710 ft 394 kts 117°
2026-04-27 17:10 63.99893 51.50972 20228 ft 391 kts 117°
2026-04-27 17:10 63.98859 51.56687 19758 ft 389 kts 117°
2026-04-27 17:11 63.97831 51.62357 19282 ft 386 kts 117°
2026-04-27 17:11 63.95786 51.73585 18339 ft 382 kts 117°
2026-04-27 17:11 63.94765 51.79169 17863 ft 381 kts 117°
2026-04-27 17:12 63.92745 51.90167 16839 ft 377 kts 117°
2026-04-27 17:12 63.91720 51.95727 16341 ft 375 kts 117°
2026-04-27 17:12 63.90726 52.01101 15885 ft 372 kts 117°
2026-04-27 17:13 63.89744 52.06408 15430 ft 363 kts 117°
2026-04-27 17:13 63.88764 52.11677 14970 ft 362 kts 117°
2026-04-27 17:13 63.87786 52.16928 14512 ft 361 kts 117°
2026-04-27 17:13 63.86807 52.22165 14070 ft 360 kts 117°
2026-04-27 17:14 63.85828 52.27388 13627 ft 360 kts 117°
2026-04-27 17:14 63.84903 52.32634 13099 ft 357 kts 110°
2026-04-27 17:14 63.84431 52.38180 12639 ft 360 kts 100°
2026-04-27 17:14 63.84146 52.43797 12182 ft 359 kts 100°
2026-04-27 17:15 63.83866 52.49403 11727 ft 358 kts 100°
2026-04-27 17:15 63.83569 52.54992 11281 ft 357 kts 101°
2026-04-27 17:15 63.83255 52.60570 10837 ft 356 kts 101°
2026-04-27 17:15 63.82933 52.66076 10384 ft 347 kts 101°
2026-04-27 17:16 63.82612 52.71422 10187 ft 332 kts 102°
2026-04-27 17:16 63.82314 52.76371 10025 ft 303 kts 102°
2026-04-27 17:16 63.82033 52.80965 9915 ft 290 kts 102°
2026-04-27 17:16 63.81753 52.85421 9798 ft 282 kts 103°
2026-04-27 17:17 63.81477 52.89774 9669 ft 278 kts 103°
2026-04-27 17:17 63.81200 52.94120 9346 ft 279 kts 103°
2026-04-27 17:17 63.80920 52.98492 8994 ft 283 kts 103°
2026-04-27 17:18 63.80349 53.07412 8443 ft 292 kts 103°
2026-04-27 17:18 63.80055 53.11976 8101 ft 290 kts 103°
2026-04-27 17:18 63.79763 53.16506 7790 ft 294 kts 103°
2026-04-27 17:18 63.79464 53.21081 7443 ft 289 kts 103°
2026-04-27 17:19 63.79179 53.25467 7133 ft 279 kts 104°
2026-04-27 17:19 63.78893 53.29784 6864 ft 276 kts 104°
2026-04-27 17:19 63.78607 53.34076 6532 ft 276 kts 104°
2026-04-27 17:19 63.78325 53.38305 6218 ft 270 kts 104°
2026-04-27 17:20 63.78044 53.42487 5902 ft 269 kts 105°
2026-04-27 17:20 63.77762 53.46658 5557 ft 268 kts 105°
2026-04-27 17:20 63.77480 53.50811 5271 ft 267 kts 105°
2026-04-27 17:20 63.77200 53.54961 4974 ft 267 kts 105°
2026-04-27 17:21 63.76917 53.59108 4673 ft 266 kts 105°
2026-04-27 17:21 63.76633 53.63232 4359 ft 265 kts 105°
2026-04-27 17:21 63.76355 53.67299 4229 ft 256 kts 105°
2026-04-27 17:21 63.76040 53.71183 4081 ft 248 kts 111°
2026-04-27 17:22 63.75603 53.74805 3911 ft 226 kts 113°
2026-04-27 17:22 63.75197 53.78056 3787 ft 206 kts 114°
2026-04-27 17:22 63.74810 53.81148 3765 ft 206 kts 114°
2026-04-27 17:22 63.74424 53.84256 3652 ft 205 kts 114°
2026-04-27 17:23 63.73907 53.87122 3539 ft 190 kts 136°
2026-04-27 17:23 63.72898 53.88894 3343 ft 186 kts 153°
2026-04-27 17:23 63.71864 53.90666 3133 ft 177 kts 154°
2026-04-27 17:23 63.70756 53.90930 3100 ft 162 kts 200°
2026-04-27 17:24 63.69773 53.89709 2902 ft 161 kts 202°
2026-04-27 17:24 63.68750 53.88712 2645 ft 157 kts 198°
2026-04-27 17:24 63.67767 53.87897 2428 ft 144 kts 196°
2026-04-27 17:24 63.66870 53.87131 2256 ft 139 kts 197°
2026-04-27 17:25 63.65968 53.86351 2068 ft 139 kts 197°
2026-04-27 17:25 63.65088 53.85681 1878 ft 128 kts 189°
2026-04-27 17:25 63.64233 53.85161 1718 ft 127 kts 190°
2026-04-27 17:25 63.63370 53.84617 1563 ft 131 kts 190°
2026-04-27 17:26 63.62487 53.84072 1386 ft 132 kts 191°
2026-04-27 17:26 63.61580 53.83503 1185 ft 138 kts 192°
2026-04-27 17:26 63.60641 53.82953 1112 ft 140 kts 192°
2026-04-27 17:26 63.59700 53.82324 1017 ft 144 kts 193°
2026-04-27 17:27 63.58705 53.81685 735 ft 151 kts 192°
2026-04-27 17:27 63.57685 53.81051 507 ft 152 kts 194°
2026-04-27 17:27 63.56729 53.80479 465 ft 126 kts 195°
2026-04-27 17:27 63.56038 53.80050 475 ft 63 kts 195°
2026-04-27 17:28 63.55886 53.80022 476 ft 17 kts 153°
2026-04-27 17:28 63.55802 53.80134 476 ft 9 kts 148°
2026-04-27 17:28 63.55765 53.80186 473 ft 0 kts 149°
2026-04-27 17:29 63.55757 53.80196 474 ft 6 kts 149°
2026-04-27 17:29 63.55730 53.80291 478 ft 8 kts 95°
2026-04-27 17:30 63.55739 53.80423 477 ft 9 kts 77°
2026-04-27 17:30 63.55682 53.80623 478 ft 6 kts 170°
2026-04-27 17:30 63.55648 53.80589 479 ft 6 kts 231°
2026-04-27 17:31 63.55636 53.80527 477 ft 0 kts 261°
2026-04-27 17:31 63.55636 53.80533 477 ft 7 kts 260°
2026-04-27 17:31 63.55637 53.80547 476 ft 0 kts 260°